Location: Walton
(43.6794°N, 81.3017°W)
Time: 15:10:27
(UTC+00:00)

USA 238 DEB - Pass Details

Date: 09 December 2025
Orbit: 883 x 1328 km, 63.4° (Epoch: 10 January)

Event Time Altitude Azimuth Distance (km) Brightness Sun altitude
Rises 00:15:55 0° 215° (SW) 3,504 7.0 -25.9°
Reaches altitude 10° 00:18:20 10° 216° (SW) 2,594 6.2 -26.3°
Maximum altitude 00:24:22 88° 307° (NW) 971 3.4 -27.4°
Enters shadow 00:25:28 64° 32° (NNE) 1,078 3.5 -27.6°
